GMERC BIBD-BIBD

Flight info

Callsign GMERC
Flight time 0h 8m
Altitude 2000
Route VFR
Aircraft PA24/L-SDGRY/G

Departure

Time 2026-04-27 16:58
Airport Bildudalur Airport (BIBD)

Arrival

Time 2026-04-27 17:06
Airport Bildudalur Airport (BIBD)
Time Latitude Longitude Altitude Speed Heading
2026-04-27 16:53 65.64512 -23.54352 31 ft 0 kts 306°
2026-04-27 16:56 65.64519 -23.54368 31 ft 2 kts 337°
2026-04-27 16:57 65.64508 -23.54294 31 ft 11 kts 127°
2026-04-27 16:57 65.64482 -23.54213 32 ft 9 kts 148°
2026-04-27 16:57 65.64357 -23.54320 24 ft 46 kts 207°
2026-04-27 16:57 65.63906 -23.54893 108 ft 85 kts 206°
2026-04-27 16:58 65.63328 -23.55520 362 ft 92 kts 191°
2026-04-27 16:58 65.62800 -23.54877 666 ft 98 kts 105°
2026-04-27 16:58 65.62940 -23.53320 1003 ft 99 kts 52°
2026-04-27 16:58 65.63553 -23.52566 1288 ft 105 kts
2026-04-27 16:59 65.64334 -23.52411 1403 ft 124 kts
2026-04-27 16:59 65.65260 -23.52228 1351 ft 141 kts
2026-04-27 16:59 65.66262 -23.52017 1338 ft 147 kts
2026-04-27 16:59 65.67281 -23.51797 1333 ft 146 kts
2026-04-27 17:00 65.68959 -23.51434 1333 ft 145 kts
2026-04-27 17:00 65.70305 -23.51141 1334 ft 145 kts
2026-04-27 17:00 65.71314 -23.50930 1337 ft 145 kts
2026-04-27 17:01 65.72300 -23.50490 1330 ft 146 kts 26°
2026-04-27 17:01 65.72834 -23.48542 1437 ft 138 kts 76°
2026-04-27 17:01 65.73037 -23.46291 1479 ft 140 kts 78°
2026-04-27 17:01 65.73218 -23.43971 1569 ft 137 kts 79°
2026-04-27 17:02 65.73384 -23.41675 1589 ft 137 kts 79°
2026-04-27 17:02 65.73543 -23.39481 1718 ft 126 kts 59°
2026-04-27 17:02 65.74171 -23.39760 1808 ft 119 kts 284°
2026-04-27 17:02 65.73856 -23.41452 2006 ft 116 kts 226°
2026-04-27 17:03 65.73285 -23.42910 2156 ft 122 kts 227°
2026-04-27 17:03 65.72700 -23.44476 2295 ft 127 kts 229°
2026-04-27 17:03 65.72026 -23.45888 2383 ft 134 kts 205°
2026-04-27 17:03 65.71089 -23.46715 2208 ft 148 kts 200°
2026-04-27 17:04 65.70121 -23.47594 1977 ft 143 kts 200°
2026-04-27 17:04 65.69226 -23.48354 1804 ft 132 kts 200°
2026-04-27 17:04 65.68426 -23.49141 1499 ft 121 kts 204°
2026-04-27 17:04 65.67660 -23.49981 1137 ft 116 kts 206°
2026-04-27 17:05 65.66974 -23.50836 798 ft 109 kts 209°
2026-04-27 17:05 65.66335 -23.51699 538 ft 101 kts 210°
2026-04-27 17:05 65.65748 -23.52448 370 ft 90 kts 208°
2026-04-27 17:05 65.65254 -23.53099 258 ft 70 kts 210°
2026-04-27 17:06 65.64855 -23.53639 144 ft 64 kts 211°
2026-04-27 17:06 65.64476 -23.54161 49 ft 60 kts 210°
2026-04-27 17:06 65.64124 -23.54621 21 ft 53 kts 208°
2026-04-27 17:06 65.63926 -23.54881 16 ft 11 kts 219°
2026-04-27 17:07 65.63903 -23.54889 14 ft 1 kts 79°
2026-04-27 17:07 65.63929 -23.54850 17 ft 11 kts 23°
2026-04-27 17:07 65.64028 -23.54741 19 ft 16 kts 26°
2026-04-27 17:07 65.64150 -23.54590 20 ft 23 kts 27°
2026-04-27 17:08 65.64305 -23.54389 21 ft 27 kts 28°
2026-04-27 17:08 65.64429 -23.54234 27 ft 7 kts 26°
2026-04-27 17:08 65.64481 -23.54260 31 ft 8 kts 297°
2026-04-27 17:08 65.64496 -23.54326 31 ft 3 kts 280°
2026-04-27 17:09 65.64499 -23.54359 31 ft 0 kts 279°